Погода Марково

Погода Марково : погода сейчас, прогноз погоды и архив. Всё, что Вы хотите узнать о погоде Марково!

Хотите узнать прогноз погоды Марково? Тогда Вам сюда: Погода Марково

Поиск расширенной информации на нашем сайте:

Другие новости

Новости СМИ2

Главная страница сайта

Новости сайта

03.07.2017

Напоминаем, что на нашем специализированном сайте Метеоцентр.Азия вы можете получить высокодетализированные автоматические прогнозы погоды по пунктам России, СНГ и мира в авиационном формате (включающие направление и скорость ветра, видимость, явления погоды, количество и форму облачности, нижнюю и верхнюю границу облачности).


Погода Марково - сегодня

Время (UTC), дата Ветер
(°,м/с) 
Видим.   Явления Облачность Т
(°С)
Тd
(°С)
f(%) Тe
(°С)
Pmin
(гПа)
dP
(гПа)
Po
(мм)
O2
(г/м3)
Тmin Tmax R s Состояние
почвы
18 22.07.17 170 (Ю) 2{06}  2000 м  дождь{ливн. осадки}  10/8 300 м средняя 
[Frnb|As op]
+13.1 +12.5 96 +19  997.8  -1.9  746  284  +13.1    26    мокрая 
21 22.07.17 190 (Ю) 3{06}  20000 м  {дождь}  9/6 300 м кучево-дожд., средняя 
[Cb cap|Ac trans]
+14.2 +12.9 92 +19  996  -1.7  745  283  +13.1         
00 23.07.17 200 (Ю) 4{09}  20000 м  {дождь}  8/6 600 м средняя 
[Cu Sc|Ac trans]
+16.5 +11.5 72 +20  994.5  -1.6  744  280           
03 23.07.17 210 (ЮЗ) 4-9{12}  20000 м    9/4 600 м средняя 
[Cu Sc|Ac trans]
+17.5 +11.7 69 +22  993.6  -0.8  743  279           
06 23.07.17 220 (ЮЗ) 5-9{10}  20000 м    9/8 600 м средняя 
[Sc|Ac trans]
+16.5 +11.1 70 +19  993.2  -0.5  743  280    +18  0.4     
09 23.07.17 230 (ЮЗ) 4-8{10}  10 км  слаб. ливневой дождь  10/6 600 м кучево-дожд., средняя 
[Cb cap|Ac As]
+15 +11.7 81 +19  993.4  0.2  743  282           
12 23.07.17 230 (ЮЗ) 3{08}  4000 м  ливневой дождь  10/10 600 м кучево-дожд. 
[Cb cap]
+13.4 +12.5 94 +18  995.1  1.7  744  283           
15 23.07.17 260 (З) 3{06}  20000 м  {ливн. осадки}  9/3 600 м кучево-дожд., средняя, верхняя 
[Cb cap|Ac trans|Ci fib]
+11.8 +10 89 +13  997.9  2.8  746  286           
18 23.07.17 270 (З) 2{06}  20000 м  {ливн. осадки}  3/0 верхняя 
[Ci fib]
+12.7 +9.2 79 +13  1000.4  2.5  748  286  +10.5      влажная 
21 23.07.17 290 (З) 3{07}  20000 м    3/1 1000 м средняя, верхняя 
[Sc|Ac lent|Ci fib]
+17.3 +8.1 55 +18  1002.5  2.1  750  283           
00 24.07.17 210 (ЮЗ) 3{09}  20000 м    6/5 600 м кучево-дожд., верхняя 
[Cb cap|Ci fib]
+21.1 +12 56 +25  1002.7  0.3  750  278           
03 24.07.17 210 (ЮЗ) 5-11{11}  20000 м    9/8 600 м кучево-дожд., средняя, верхняя 
[Cb cap|Ac trans|Ci]
+20.6 +12.6 60 +25  1002.8  750  279           
06 24.07.17 220 (ЮЗ) 5-12{12}  20000 м    9/3 600 м средняя, верхняя 
[Cu Sc|Ac trans|Cc]
+20.3 +12.1 59 +24  1003.2  0.4  750  279    +22.1       
09 24.07.17 240 (ЮЗ) 3-8{12}  20000 м    4/3 600 м верхняя 
[Sc|Ci fib]
+17.4 -11.3 13 +18  1004.5  1.3  751  286           
12 24.07.17 240 (ЮЗ) 2{09}  20000 м    3/3 600 м верхняя 
[Sc|Ci fib]
+13.1 +10.2 83 +15  1006.9  2.4  753  288           
15 24.07.17 220 (ЮЗ) 1{06}  20000 м    3/1 1000 м верхняя 
[Sc|Ci fib]
+9.8 +8.5 92 +11  1009.3  2.3  755  292           
18 24.07.17 270 (З) 3{05}  20000 м    3/3 1000 м верхняя 
[Sc|Ci fib]
+11.8 +8.5 80 +12  1011.5  2.3  757  291  +7.2        влажная 
21 24.07.17 300 (СЗ) 2{06}  20000 м    1/1 600 м 
[Cu hum]
+17.1 +7.6 54 +18  1013.1  1.6  758  286           
00 25.07.17 230 (ЮЗ) 1{04}  20000 м    4/4 600 м 
[Cu hum]
+19.8 +7.3 44 +21  1013.4  0.3  758  284           
03 25.07.17 210 (ЮЗ) 3{06}  20000 м    8/5 600 м средняя 
[Cu Sc|Ac lent]
+20.9 +7.3 41 +21  1012.9  -0.5  758  282           
06 25.07.17 010 (С) 4-9{13}  10 км  слаб. ливневой дождь  9/8 600 м кучево-дожд., средняя 
[Cb cap|Ac trans]
+14.5 +10 74 +15  1014.4  1.4  759  288    +22.2  0.3     
09 25.07.17 060 (СВ) 1{09}  20000 м  {ливн. осадки}  4/3 1000 м средняя 
[Sc diur, vesp|Ac trans]
+13 +10.5 85 +16  1015.8  1.4  760  290           
12 25.07.17 350 (С) 1{03}  20000 м  {ливн. осадки}  3/3 1000 м 
[Sc diur, vesp]
+6.1 +5.6 97 +7  1016.9  760  299           
15 25.07.17 350 (С) 1{03}  20000 м    6/6 600 м 
[Cu Sc]
+8.5 +8.1 97 +10  1017.3  0.5  761  296           
18 25.07.17 010 (С) 2{04}  20000 м    3/3 600 м верхняя 
[Cu Sc|Cc]
+9.1 +8.1 93 +9  1017.3  761  295  +5.8    0.0    влажная 
Время (UTC), дата Ветер
(°,м/с) 
Видим.   Явления Облачность Т
(°С)
Тd
(°С)
f(%) Тe
(°С)
Pmin
(гПа)
dP
(гПа)
Po
(мм)
O2
(г/м3)
Тmin Tmax R s Состояние
почвы

Для получения пояснительной информации подведите курсор к названию столбца.

ПОГОДА Марково - архив

Всё, что Вы хотите узнать о погоде Марково - удобно и подробно!

Выберите нужную дату (начиная с 1 января 2015* года) и нажмите кнопку "Найти".
Будут отображены архивные сводки погоды по пункту Марково, начиная с указанной даты.


Отображать данные в формате CSV (для использования в таблицах Excel)


Внимание! Наш архив погоды предназначен исключительно для личного некоммерческого использования в познавательных целях. Если Вам необходимы официальные справки о состоянии погоды (для производственных, юридических, коммерческих и т.п. целей), обращайтесь в органы Росгидромета.

*Примечание: данная дата относится к архиву по метеостанциям СССР (Россия, СНГ, Балтия).
Архив по метеостанциям Зарубежной Европы и Азии (кроме Китая) хранится 10 дней, по другим регионам земного шара (Китай, Африка, Америка, Австралия, Океания) - 1 день.

Марково - район местоположения метеостанции


Название, широта, долгота, высота метеостанции:
Марково 64.7°ш. 170.4°д. 26 м над ур. моря [Российская Федерация]

Дополнительная информация

В oтличие oт бoльшинства пoгoдных сайтoв мы публикуем пoдрoбную метеoинфoрмацию в детальнoм прoфессиoнальнoм фoрмате.

Характеристики температуры и влажнoсти вoздуха измеряются на высoте 2 м в тени вдали oт зданий и деревьев.
Скoрoсть ветра измеряется на высoте 10 м (на урoвне рoста челoвека скoрoсть ветра ниже в 1.5-2 раза). Если метеoстанция нахoдится в гoрoде или в лесу, тo скoрoсть ветра занижена на 2-4 м/с пo сравнению с oткрытым местoм. Скoрoсть ветра над акватoриями крупных рек и oзёр, а также на вершинах хoлмoв на 2-5 м/с выше, чем в oбычных услoвиях.
Атмoсфернoе давление в разных тoчках местнoсти мoжет значительнo oтличаться oт давления на метеoстанции, в зависимoсти oт услoвий рельефа (при пoдъёме на 10 м давление пoнижается примернo на 1 мм рт.ст.).